Time,TemperatureF,DewpointF,PressureIn,WindDirection,WindDirectionDegrees,WindSpeedMPH,WindSpeedGustMPH,Humidity,HourlyPrecipIn,Conditions,Clouds,dailyrainin,SoftwareType,DateUTC
2013-01-13 00:03:00,54.0,53.0,30.03,SW,231,0.0,0.0,97,0.00,,,0.00,,2013-01-13 05:03:00,
2013-01-13 00:12:00,54.0,53.0,30.03,SW,231,0.0,0.0,97,0.00,,,0.00,,2013-01-13 05:12:00,
2013-01-13 00:23:00,54.0,53.0,30.03,SW,231,0.0,0.0,97,0.00,,,0.00,,2013-01-13 05:23:00,
2013-01-13 00:32:00,54.0,53.0,30.03,SW,231,0.0,0.0,97,0.00,,,0.00,,2013-01-13 05:32:00,
2013-01-13 00:42:00,54.0,53.0,30.03,SW,231,0.0,0.0,97,0.00,,,0.00,,2013-01-13 05:42:00,
2013-01-13 00:53:00,54.0,53.0,30.03,SW,231,0.0,0.0,97,0.00,,,0.00,,2013-01-13 05:53:00,
2013-01-13 01:03:00,53.0,52.0,30.03,SW,231,0.0,0.0,97,0.00,,,0.00,,2013-01-13 06:03:00,
2013-01-13 01:12:00,53.0,52.0,30.03,SW,231,0.0,0.0,97,0.00,,,0.00,,2013-01-13 06:12:00,
2013-01-13 01:22:00,53.0,52.0,30.03,SW,231,0.0,0.0,97,0.00,,,0.00,,2013-01-13 06:22:00,
2013-01-13 01:32:00,53.0,52.0,30.03,SW,231,0.0,0.0,97,0.00,,,0.00,,2013-01-13 06:32:00,
2013-01-13 01:42:00,53.0,52.0,30.03,SW,231,0.0,0.0,97,0.00,,,0.00,,2013-01-13 06:42:00,
2013-01-13 01:52:00,53.0,52.0,30.03,SW,231,0.0,0.0,98,0.00,,,0.00,,2013-01-13 06:52:00,
2013-01-13 02:02:00,52.0,51.0,30.03,SW,231,0.0,0.0,98,0.00,,,0.00,,2013-01-13 07:02:00,
2013-01-13 02:12:00,52.0,51.0,30.03,SW,231,0.0,0.0,98,0.00,,,0.00,,2013-01-13 07:12:00,
2013-01-13 02:22:00,52.0,51.0,30.03,SW,231,0.0,0.0,98,0.00,,,0.00,,2013-01-13 07:22:00,
2013-01-13 02:32:00,52.0,51.0,30.04,SW,231,0.0,0.0,98,0.00,,,0.00,,2013-01-13 07:32:00,
2013-01-13 02:42:00,52.0,51.0,30.04,SW,231,0.0,0.0,98,0.00,,,0.00,,2013-01-13 07:42:00,
2013-01-13 02:53:00,52.0,51.0,30.03,SW,231,0.0,0.0,98,0.00,,,0.00,,2013-01-13 07:53:00,
2013-01-13 03:02:00,52.0,51.0,30.03,SW,231,0.0,0.0,98,0.00,,,0.00,,2013-01-13 08:02:00,
2013-01-13 03:12:00,52.0,51.0,30.03,SW,231,0.0,0.0,98,0.00,,,0.00,,2013-01-13 08:12:00,
2013-01-13 03:22:00,52.0,51.0,30.03,SW,231,0.0,0.0,98,0.00,,,0.00,,2013-01-13 08:22:00,
2013-01-13 03:32:00,52.0,51.0,30.03,SW,231,0.0,0.0,98,0.00,,,0.00,,2013-01-13 08:32:00,
2013-01-13 03:42:00,52.0,51.0,30.03,SW,231,0.0,0.0,98,0.00,,,0.00,,2013-01-13 08:42:00,
2013-01-13 03:53:00,52.0,51.0,30.02,SW,231,0.0,0.0,98,0.00,,,0.00,,2013-01-13 08:53:00,
2013-01-13 04:02:00,52.0,52.0,30.02,SW,231,0.0,0.0,99,0.00,,,0.00,,2013-01-13 09:02:00,
2013-01-13 04:12:00,52.0,52.0,30.01,SW,231,0.0,0.0,99,0.00,,,0.00,,2013-01-13 09:12:00,
2013-01-13 04:22:00,52.0,52.0,30.01,SW,231,0.0,0.0,99,0.00,,,0.00,,2013-01-13 09:22:00,
2013-01-13 04:32:00,52.0,52.0,30.02,SW,231,0.0,0.0,99,0.00,,,0.00,,2013-01-13 09:32:00,
2013-01-13 04:42:00,52.0,52.0,30.02,SW,231,0.0,0.0,99,0.00,,,0.00,,2013-01-13 09:42:00,
2013-01-13 04:52:00,53.0,53.0,30.02,SW,231,0.0,0.0,99,0.00,,,0.00,,2013-01-13 09:52:00,
2013-01-13 05:02:00,53.0,53.0,30.01,SW,231,0.0,0.0,99,0.00,,,0.00,,2013-01-13 10:02:00,
2013-01-13 05:12:00,53.0,53.0,30.01,SW,231,0.0,0.0,99,0.00,,,0.00,,2013-01-13 10:12:00,
2013-01-13 05:22:00,53.0,53.0,30.01,SW,231,0.0,0.0,99,0.00,,,0.00,,2013-01-13 10:22:00,
2013-01-13 05:32:00,53.0,53.0,30.02,SW,231,0.0,0.0,99,0.00,,,0.00,,2013-01-13 10:32:00,
2013-01-13 05:42:00,53.0,53.0,30.02,SW,231,0.0,0.0,99,0.00,,,0.00,,2013-01-13 10:42:00,
2013-01-13 05:53:00,53.0,53.0,30.02,SW,231,0.0,0.0,99,0.00,,,0.00,,2013-01-13 10:53:00,
2013-01-13 06:02:00,53.0,53.0,30.02,SW,231,0.0,0.0,99,0.00,,,0.00,,2013-01-13 11:02:00,
2013-01-13 06:12:00,53.0,53.0,30.02,SW,231,0.0,0.0,99,0.00,,,0.00,,2013-01-13 11:12:00,
2013-01-13 06:22:00,53.0,53.0,30.02,SW,231,0.0,0.0,99,0.00,,,0.00,,2013-01-13 11:22:00,
2013-01-13 06:32:00,52.0,52.0,30.03,SW,231,0.0,0.0,99,0.00,,,0.00,,2013-01-13 11:32:00,
2013-01-13 06:42:00,52.0,52.0,30.03,SW,231,0.0,0.0,99,0.00,,,0.00,,2013-01-13 11:42:00,
2013-01-13 06:53:00,52.0,52.0,30.03,SW,231,0.0,0.0,99,0.00,,,0.00,,2013-01-13 11:53:00,
2013-01-13 07:03:00,52.0,52.0,30.03,SW,231,0.0,0.0,99,0.00,,,0.00,,2013-01-13 12:03:00,
2013-01-13 07:12:00,52.0,52.0,30.03,SW,231,0.0,0.0,99,0.00,,,0.00,,2013-01-13 12:12:00,
2013-01-13 07:22:00,51.0,51.0,30.04,SW,231,0.0,0.0,99,0.00,,,0.00,,2013-01-13 12:22:00,
2013-01-13 07:33:00,51.0,51.0,30.03,SW,231,0.0,0.0,99,0.00,,,0.00,,2013-01-13 12:33:00,
2013-01-13 07:42:00,51.0,51.0,30.03,SW,231,0.0,0.0,99,0.00,,,0.00,,2013-01-13 12:42:00,
2013-01-13 07:53:00,51.0,51.0,30.04,SW,231,0.0,0.0,99,0.00,,,0.00,,2013-01-13 12:53:00,
2013-01-13 08:03:00,51.0,51.0,30.05,SW,231,0.0,0.0,99,0.00,,,0.00,,2013-01-13 13:03:00,
2013-01-13 08:12:00,51.0,51.0,30.05,SW,231,0.0,0.0,99,0.00,,,0.00,,2013-01-13 13:12:00,
2013-01-13 08:22:00,52.0,52.0,30.06,SW,231,0.0,0.0,99,0.00,,,0.00,,2013-01-13 13:22:00,
2013-01-13 08:33:00,53.0,53.0,30.06,SW,231,0.0,0.0,99,0.00,,,0.00,,2013-01-13 13:33:00,
2013-01-13 08:42:00,53.0,53.0,30.06,SW,231,0.0,0.0,99,0.00,,,0.00,,2013-01-13 13:42:00,
2013-01-13 08:53:00,53.0,53.0,30.06,SW,231,0.0,0.0,99,0.00,,,0.00,,2013-01-13 13:53:00,
2013-01-13 09:03:00,54.0,54.0,30.06,SW,231,0.0,0.0,99,0.00,,,0.00,,2013-01-13 14:03:00,
2013-01-13 09:12:00,54.0,54.0,30.06,SW,231,0.0,0.0,99,0.00,,,0.00,,2013-01-13 14:12:00,
2013-01-13 09:22:00,54.0,54.0,30.06,SW,231,0.0,2.0,99,0.00,,,0.00,,2013-01-13 14:22:00,
2013-01-13 09:33:00,55.0,55.0,30.06,SSW,207,0.0,2.0,99,0.00,,,0.00,,2013-01-13 14:33:00,
2013-01-13 09:43:00,55.0,55.0,30.06,SSW,207,0.0,2.0,99,0.00,,,0.00,,2013-01-13 14:43:00,
2013-01-13 09:53:00,56.0,56.0,30.06,SSW,206,0.0,0.0,99,0.00,,,0.00,,2013-01-13 14:53:00,
2013-01-13 10:03:00,57.0,57.0,30.07,South,180,0.0,3.0,99,0.00,,,0.00,,2013-01-13 15:03:00,
2013-01-13 10:12:00,57.0,57.0,30.07,South,180,0.0,3.0,99,0.00,,,0.00,,2013-01-13 15:12:00,
2013-01-13 10:23:00,58.0,58.0,30.06,South,170,1.0,4.0,99,0.00,,,0.00,,2013-01-13 15:23:00,
2013-01-13 10:33:00,60.0,60.0,30.06,SSW,196,0.0,4.0,99,0.00,,,0.00,,2013-01-13 15:33:00,
2013-01-13 10:43:00,60.0,60.0,30.06,SSW,196,0.0,4.0,99,0.00,,,0.00,,2013-01-13 15:43:00,
2013-01-13 10:53:00,61.0,61.0,30.06,SSW,196,0.0,1.0,99,0.00,,,0.00,,2013-01-13 15:53:00,
2013-01-13 11:03:00,62.0,62.0,30.06,South,170,0.0,5.0,99,0.00,,,0.00,,2013-01-13 16:03:00,
2013-01-13 11:12:00,62.0,62.0,30.06,South,170,0.0,5.0,99,0.00,,,0.00,,2013-01-13 16:12:00,
2013-01-13 11:23:00,63.0,61.0,30.05,SSW,212,0.0,4.0,93,0.00,,,0.00,,2013-01-13 16:23:00,
2013-01-13 11:33:00,65.0,61.0,30.04,WSW,256,0.0,5.0,86,0.00,,,0.00,,2013-01-13 16:33:00,
2013-01-13 11:43:00,65.0,61.0,30.04,WSW,256,0.0,5.0,86,0.00,,,0.00,,2013-01-13 16:43:00,
2013-01-13 11:53:00,68.0,62.0,30.04,SSE,163,1.0,5.0,80,0.00,,,0.00,,2013-01-13 16:53:00,
2013-01-13 12:03:00,69.0,61.0,30.03,South,169,0.0,7.0,76,0.00,,,0.00,,2013-01-13 17:03:00,
2013-01-13 12:12:00,69.0,61.0,30.03,South,169,0.0,7.0,76,0.00,,,0.00,,2013-01-13 17:12:00,
2013-01-13 12:22:00,71.0,62.0,30.01,South,174,3.0,10.0,73,0.00,,,0.00,,2013-01-13 17:22:00,
2013-01-13 12:33:00,72.0,62.0,30.01,SSE,168,1.0,6.0,70,0.00,,,0.00,,2013-01-13 17:33:00,
2013-01-13 12:42:00,72.0,62.0,30.01,SSE,168,1.0,6.0,70,0.00,,,0.00,,2013-01-13 17:42:00,
2013-01-13 12:53:00,72.0,61.0,30.00,SSE,168,2.0,5.0,69,0.00,,,0.00,,2013-01-13 17:53:00,
2013-01-13 13:03:00,73.0,61.0,30.00,SSW,201,2.0,12.0,65,0.00,,,0.00,,2013-01-13 18:03:00,
2013-01-13 13:12:00,73.0,61.0,30.00,SSW,201,2.0,12.0,65,0.00,,,0.00,,2013-01-13 18:12:00,
2013-01-13 13:23:00,74.0,61.0,30.00,SSW,194,1.0,7.0,64,0.00,,,0.00,,2013-01-13 18:23:00,
2013-01-13 13:33:00,75.0,61.0,29.99,SW,216,0.0,7.0,62,0.00,,,0.00,,2013-01-13 18:33:00,
2013-01-13 13:43:00,75.0,61.0,29.99,SW,216,0.0,7.0,62,0.00,,,0.00,,2013-01-13 18:43:00,
2013-01-13 13:53:00,75.0,60.0,29.99,NNE,14,0.0,6.0,60,0.00,,,0.00,,2013-01-13 18:53:00,
2013-01-13 14:03:00,75.0,60.0,29.98,SSW,199,2.0,6.0,60,0.00,,,0.00,,2013-01-13 19:03:00,
2013-01-13 14:12:00,75.0,60.0,29.98,SSW,199,2.0,6.0,60,0.00,,,0.00,,2013-01-13 19:12:00,
2013-01-13 14:23:00,75.0,60.0,29.98,West,264,0.0,6.0,60,0.00,,,0.00,,2013-01-13 19:23:00,
2013-01-13 14:33:00,75.0,59.0,29.98,SSW,202,0.0,1.0,58,0.00,,,0.00,,2013-01-13 19:33:00,
2013-01-13 14:43:00,75.0,59.0,29.98,SSW,202,0.0,1.0,58,0.00,,,0.00,,2013-01-13 19:43:00,
2013-01-13 14:53:00,75.0,60.0,29.98,South,185,0.0,7.0,59,0.00,,,0.00,,2013-01-13 19:53:00,
2013-01-13 15:03:00,75.0,59.0,29.98,SSW,195,1.0,10.0,58,0.00,,,0.00,,2013-01-13 20:03:00,
2013-01-13 15:12:00,75.0,59.0,29.98,SSW,195,1.0,10.0,58,0.00,,,0.00,,2013-01-13 20:12:00,
2013-01-13 15:22:00,75.0,59.0,29.99,SSW,197,1.0,6.0,57,0.00,,,0.00,,2013-01-13 20:22:00,
2013-01-13 15:33:00,74.0,58.0,30.00,WNW,286,1.0,5.0,58,0.00,,,0.00,,2013-01-13 20:33:00,
2013-01-13 15:43:00,74.0,58.0,30.00,WNW,286,1.0,5.0,58,0.00,,,0.00,,2013-01-13 20:43:00,
2013-01-13 15:53:00,74.0,59.0,30.01,WNW,285,1.0,5.0,60,0.00,,,0.00,,2013-01-13 20:53:00,
2013-01-13 16:03:00,74.0,59.0,30.00,South,189,0.0,4.0,60,0.00,,,0.00,,2013-01-13 21:03:00,
2013-01-13 16:12:00,74.0,59.0,30.00,South,189,0.0,4.0,60,0.00,,,0.00,,2013-01-13 21:12:00,
2013-01-13 16:23:00,73.0,59.0,30.01,South,172,0.0,3.0,61,0.00,,,0.00,,2013-01-13 21:23:00,
2013-01-13 16:33:00,73.0,59.0,30.01,South,176,0.0,3.0,62,0.00,,,0.00,,2013-01-13 21:33:00,
2013-01-13 16:43:00,73.0,59.0,30.01,South,176,0.0,3.0,62,0.00,,,0.00,,2013-01-13 21:43:00,
2013-01-13 16:53:00,72.0,59.0,30.01,South,181,0.0,3.0,63,0.00,,,0.00,,2013-01-13 21:53:00,
2013-01-13 17:02:00,72.0,60.0,30.01,South,186,0.0,0.0,66,0.00,,,0.00,,2013-01-13 22:02:00,
2013-01-13 17:12:00,72.0,60.0,30.01,South,186,0.0,0.0,66,0.00,,,0.00,,2013-01-13 22:12:00,
2013-01-13 17:22:00,71.0,59.0,30.02,South,186,0.0,1.0,67,0.00,,,0.00,,2013-01-13 22:22:00,
2013-01-13 17:33:00,70.0,60.0,30.01,South,182,0.0,0.0,70,0.00,,,0.00,,2013-01-13 22:33:00,
2013-01-13 17:43:00,70.0,60.0,30.01,South,182,0.0,0.0,70,0.00,,,0.00,,2013-01-13 22:43:00,
2013-01-13 17:53:00,68.0,59.0,30.01,South,182,0.0,1.0,73,0.00,,,0.00,,2013-01-13 22:53:00,
2013-01-13 18:02:00,67.0,59.0,30.01,South,182,0.0,0.0,75,0.00,,,0.00,,2013-01-13 23:02:00,
2013-01-13 18:12:00,67.0,59.0,30.01,South,182,0.0,0.0,75,0.00,,,0.00,,2013-01-13 23:12:00,
2013-01-13 18:23:00,66.0,59.0,30.01,South,183,0.0,1.0,77,0.00,,,0.00,,2013-01-13 23:23:00,
2013-01-13 18:33:00,65.0,58.0,30.01,South,182,0.0,0.0,79,0.00,,,0.00,,2013-01-13 23:33:00,
2013-01-13 18:43:00,65.0,58.0,30.01,South,182,0.0,0.0,79,0.00,,,0.00,,2013-01-13 23:43:00,
2013-01-13 18:53:00,64.0,58.0,30.01,South,182,0.0,0.0,82,0.00,,,0.00,,2013-01-13 23:53:00,
2013-01-13 19:03:00,64.0,59.0,30.01,South,182,0.0,1.0,83,0.00,,,0.00,,2013-01-14 00:03:00,
2013-01-13 19:12:00,64.0,59.0,30.01,South,182,0.0,1.0,83,0.00,,,0.00,,2013-01-14 00:12:00,
2013-01-13 19:22:00,63.0,58.0,30.01,South,182,0.0,0.0,84,0.00,,,0.00,,2013-01-14 00:22:00,
2013-01-13 19:33:00,63.0,58.0,30.01,South,182,0.0,0.0,85,0.00,,,0.00,,2013-01-14 00:33:00,
2013-01-13 19:43:00,63.0,58.0,30.01,South,182,0.0,0.0,85,0.00,,,0.00,,2013-01-14 00:43:00,
2013-01-13 19:53:00,62.0,58.0,30.01,South,183,0.0,0.0,86,0.00,,,0.00,,2013-01-14 00:53:00,
2013-01-13 20:03:00,61.0,57.0,30.00,South,182,0.0,0.0,88,0.00,,,0.00,,2013-01-14 01:03:00,
2013-01-13 20:12:00,61.0,57.0,30.00,South,182,0.0,0.0,88,0.00,,,0.00,,2013-01-14 01:12:00,
2013-01-13 20:22:00,61.0,57.0,30.00,South,183,0.0,0.0,88,0.00,,,0.00,,2013-01-14 01:22:00,
2013-01-13 20:33:00,60.0,57.0,30.00,South,182,0.0,0.0,89,0.00,,,0.00,,2013-01-14 01:33:00,
2013-01-13 20:42:00,60.0,57.0,30.00,South,182,0.0,0.0,89,0.00,,,0.00,,2013-01-14 01:42:00,
2013-01-13 20:53:00,60.0,57.0,30.00,South,183,0.0,0.0,89,0.00,,,0.00,,2013-01-14 01:53:00,
2013-01-13 21:03:00,60.0,58.0,30.01,South,182,0.0,0.0,92,0.00,,,0.00,,2013-01-14 02:03:00,
2013-01-13 21:12:00,60.0,58.0,30.01,South,182,0.0,2.0,92,0.00,,,0.00,,2013-01-14 02:12:00,
2013-01-13 21:22:00,60.0,58.0,30.01,South,182,0.0,2.0,92,0.00,,,0.00,,2013-01-14 02:22:00,
2013-01-13 21:33:00,60.0,58.0,30.01,South,182,0.0,2.0,92,0.00,,,0.00,,2013-01-14 02:33:00,
2013-01-13 21:42:00,60.0,58.0,30.01,South,182,0.0,2.0,92,0.00,,,0.00,,2013-01-14 02:42:00,
2013-01-13 21:53:00,60.0,58.0,30.01,South,178,1.0,3.0,92,0.00,,,0.00,,2013-01-14 02:53:00,
2013-01-13 22:03:00,60.0,57.0,30.01,South,175,0.0,3.0,91,0.00,,,0.00,,2013-01-14 03:03:00,
2013-01-13 22:12:00,60.0,57.0,30.01,South,175,0.0,3.0,91,0.00,,,0.00,,2013-01-14 03:12:00,
2013-01-13 22:22:00,61.0,58.0,30.02,South,175,0.0,2.0,90,0.00,,,0.00,,2013-01-14 03:22:00,
2013-01-13 22:32:00,61.0,58.0,30.02,SSE,166,0.0,3.0,89,0.00,,,0.00,,2013-01-14 03:32:00,
2013-01-13 22:42:00,61.0,58.0,30.02,SSE,166,0.0,3.0,89,0.00,,,0.00,,2013-01-14 03:42:00,
2013-01-13 22:53:00,62.0,58.0,30.02,SSE,159,0.0,3.0,88,0.00,,,0.00,,2013-01-14 03:53:00,
2013-01-13 23:02:00,62.0,58.0,30.02,SSE,159,0.0,3.0,87,0.00,,,0.00,,2013-01-14 04:02:00,
2013-01-13 23:12:00,62.0,58.0,30.02,SSE,159,0.0,3.0,87,0.00,,,0.00,,2013-01-14 04:12:00,
2013-01-13 23:22:00,62.0,58.0,30.02,South,191,2.0,5.0,87,0.00,,,0.00,,2013-01-14 04:22:00,
2013-01-13 23:32:00,62.0,58.0,30.03,SSE,166,0.0,4.0,87,0.00,,,0.00,,2013-01-14 04:32:00,
2013-01-13 23:42:00,62.0,58.0,30.03,SSE,166,0.0,4.0,87,0.00,,,0.00,,2013-01-14 04:42:00,
2013-01-13 23:52:00,62.0,58.0,30.03,SSW,200,0.0,5.0,87,0.00,,,0.00,,2013-01-14 04:52:00,